Regional Weather Roundup
Issued by NWS Little Rock, AR

Home | Current Version | Previous Version | Graphics & Text | Print | Product List | Glossary On
Versions: 1 2 3 4 5 6 7 8 9 10 11 12 13 14 15 16 17 18 19 20 21 22 23 24 25 26 27 28 29 30 31 32
000
ASUS44 KLZK 190905
RWRLZK

WEATHER ROUNDUP FOR ARKANSAS
NATIONAL WEATHER SERVICE LITTLE ROCK AR
300 AM CST THU JAN 19 2017

NOTE: "FAIR" INDICATES FEW OR NO CLOUDS BELOW 12,000 FEET WITH NO
SIGNIFICANT WEATHER AND/OR OBSTRUCTIONS TO VISIBILITY.

ARZ001-003-010-029-191000-
NORTHWEST ARKANSAS

CITY           SKY/WX    TMP DP  RH WIND       PRES   REMARKS
FAYETTEVILLE   CLOUDY    48  48 100 CALM      29.90F
FORT SMITH     CLOUDY    46  44  93 E6        29.92F FOG
HARRISON       FOG       42  42 100 SE7       29.92F VSB 1/2
BENTONVILLE    CLOUDY   N/A N/A N/A CALM      29.91S
ROGERS         CLOUDY    45  44  97 CALM      29.91F FOG
SILOAM SPGS    CLOUDY    46  45  93 SW3       29.90F
HIGHFILL       CLOUDY    48  48 100 CALM      29.90F FOG
$$

ARZ004-005-016-191000-
NORTH CENTRAL ARKANSAS

CITY           SKY/WX    TMP DP  RH WIND       PRES   REMARKS
BATESVILLE     CLOUDY    45  43  93 NE3       29.96F VSB 1/2
FLIPPIN        CLOUDY    43  37  81 E3        29.92F
MTN HOME       CLOUDY    42  42 100 SE5       29.93F FOG
$$

ARZ040-041-191000-
WEST CENTRAL ARKANSAS

CITY           SKY/WX    TMP DP  RH WIND       PRES   REMARKS
MENA           CLOUDY    48  46  93 CALM      29.92F
MOUNT IDA      CLOUDY    48  46  93 CALM      29.90F FOG
$$

ARZ009-017-025-026-028-191000-
NORTHEAST ARKANSAS

CITY           SKY/WX    TMP DP  RH WIND       PRES   REMARKS
CORNING        CLOUDY    45  45 100 NE9       29.98F FOG
JONESBORO      LGT RAIN  47  45  93 NE7       29.96F
NEWPORT        CLOUDY    45  45 100 NE12      29.94  FOG
WALNUT RIDGE   CLOUDY    45  41  87 NE9       29.96F
BLYTHEVILLE    LGT RAIN  48  46  93 E8        29.98F
$$

ARZ022-023-033-042-044-191000-
CENTRAL ARKANSAS

CITY           SKY/WX    TMP DP  RH WIND       PRES   REMARKS
LITTLE ROCK    DRZL/FOG  46  46 100 N3        29.95F VSB 1
N LITTLE ROCK    N/A     46  45  97 CALM      29.95F
JACKSONVILLE   DRIZZLE   47  47  99 CALM      29.93F FOG
SEARCY         RAIN      46  46 100 NE7       29.95F FOG
HOT SPRINGS    LGT RAIN  48  48 100 CALM      29.93F FOG
RUSSELLVILLE   CLOUDY    46  45  96 CALM      29.94F FOG
$$

ARZ036-191000-
EAST ARKANSAS

CITY           SKY/WX    TMP DP  RH WIND       PRES   REMARKS
WEST MEMPHIS   CLOUDY    52  52 100 E7        29.94F
$$

ARZ050-053-066-070-073-191000-
SOUTHWEST ARKANSAS

CITY           SKY/WX    TMP DP  RH WIND       PRES   REMARKS
ARKADELPHIA    CLOUDY    48  47  96 CALM      29.95F FOG
CAMDEN         CLOUDY    48  46  93 NW5       29.92F FOG
TEXARKANA      CLOUDY    48  48 100 E3        29.92F
EL DORADO      FOG       50  50 100 N5        29.92F VSB 1
DE QUEEN       CLOUDY    49  49 100 E5        29.92F FOG
$$

ARZ056-057-069-191000-
SOUTHEAST ARKANSAS

CITY           SKY/WX    TMP DP  RH WIND       PRES   REMARKS
PINE BLUFF     CLOUDY    49  48  97 N3        29.92F FOG
STUTTGART      CLOUDY    48  43  81 NE6       29.93F
MONTICELLO     FOG       51  51 100 N3        29.90F VSB 1/2

$$






USA.gov is the U.S. government's official web portal to all federal, state and local government web resources and services.